This is the latest recevied weather packets stored in our database for station/object N9BID. If no packets are shown the sender has not sent any weather packets the latest 10 day(s).
| Time | Temp. | Humidity | Pressure | Rain* | Wind** | Luminosity | Snow |
|---|---|---|---|---|---|---|---|
| 1777882506 | 9.44° C | 61% | 992.2 hPa | 0 mm | - | 0 W/m² | - |
| 1777882201 | 9.44° C | 61% | 992.3 hPa | 0 mm | - | 0 W/m² | - |
| 1777881898 | 9.44° C | 62% | 992.1 hPa | 0 mm | - | 0 W/m² | - |
| 1777881595 | 9.44° C | 60% | 992.6 hPa | 0 mm | - | 0 W/m² | - |
| 1777881292 | 9.44° C | 61% | 992.5 hPa | 0 mm | - | 0 W/m² | - |
| 1777880989 | 8.89° C | 61% | 992.5 hPa | 0 mm | - | 0 W/m² | - |
| 1777880687 | 8.89° C | 61% | 992.7 hPa | 0 mm | - | 0 W/m² | - |
| 1777880385 | 8.89° C | 59% | 992.8 hPa | 0 mm | - | 0 W/m² | - |
| 1777880083 | 8.89° C | 59% | 992.8 hPa | 0 mm | - | 0 W/m² | - |
| 1777879781 | 7.78° C | 62% | 992.8 hPa | 0 mm | - | 0 W/m² | - |
| 1777879478 | 7.22° C | 65% | 992.7 hPa | 0 mm | - | 0 W/m² | - |
| 1777879175 | 6.67° C | 67% | 993.2 hPa | 0 mm | - | 0 W/m² | - |
| 1777878872 | 6.67° C | 68% | 993.1 hPa | 0 mm | - | 0 W/m² | - |
| 1777878569 | 6.67° C | 68% | 993.2 hPa | 0 mm | - | 0 W/m² | - |
| 1777878266 | 6.67° C | 68% | 993.3 hPa | 0 mm | - | 0 W/m² | - |
| 1777877961 | 6.67° C | 67% | 993.5 hPa | 0 mm | - | 0 W/m² | - |
| 1777877658 | 6.67° C | 69% | 993.4 hPa | 0 mm | - | 0 W/m² | - |
| 1777877356 | 6.67° C | 69% | 993.5 hPa | 0 mm | - | 0 W/m² | - |
| 1777877053 | 6.67° C | 69% | 993.7 hPa | 0 mm | - | 0 W/m² | - |
| 1777876750 | 6.67° C | 69% | 993.9 hPa | 0 mm | - | 0 W/m² | - |
| 1777876448 | 6.67° C | 69% | 993.8 hPa | 0 mm | - | 0 W/m² | - |
| 1777876143 | 6.67° C | 70% | 994 hPa | 0 mm | - | 0 W/m² | - |
| 1777875840 | 6.67° C | 69% | 993.9 hPa | 0 mm | - | 0 W/m² | - |
| 1777875536 | 6.67° C | 70% | 994.6 hPa | 0 mm | - | 0 W/m² | - |
| 1777875233 | 6.67° C | 69% | 994.2 hPa | 0 mm | - | 0 W/m² | - |
* Rain latest hour (hover to see other rain measurements)
** Current wind speed in m/s (hover to see current wind gust speed)